Wind_Speed
3 5 2 3 1 2 2 1 3 3 1 4 6 10 13 22 13 12 16 15 9 10 14 11 10 12 13 18 19 20 19 18 17 15 13 6 7 9 12 12 13 13 15 22
5 2 2 1 0 2 3 1 3 5 2 3 7 16 10 7 7 13 15 12 11 10 12 13 12 12 15 18 19 21 18 16 15 15 13 10 5 8 10 11 11 10 10 20
4 1 2 0 3 3 2 2 1 4 7 4 7 7 5 3 3 7 11 10 10 12 11 13 12 13 15 16 19 19 17 13 13 13 11 10 5 6 7 7 8 6 8 15
4 2 1 1 2 1 2 2 0 3 5 3 3 4 4 3 5 5 13 13 11 11 13 14 13 14 14 16 16 16 15 13 12 11 10 8 4 5 4 3 2 2 3 14
2 0 2 2 1 2 2 0 0 1 1 3 3 2 6 3 3 8 12 11 9 10 12 13 13 12 12 15 15 15 14 11 9 10 8 6 3 3 4 0 2 3 3 17
2 1 2 1 0 1 2 1 3 3 2 3 2 3 5 2 4 4 4 8 8 7 10 13 14 12 13 14 15 14 11 10 9 8 6 5 3 3 3 2 5 5 3 4
5 2 1 2 1 1 2 3 4 5 4 4 2 2 8 4 4 4 7 6 4 5 9 13 12 13 13 13 13 12 10 8 7 7 5 4 2 4 4 2 4 6 8 4
4 5 1 4 1 2 2 3 4 4 2 5 3 5 4 5 4 4 4 3 3 5 8 11 11 11 11 11 12 11 10 8 6 6 4 4 4 2 2 4 2 4 8 10
4 3 2 3 2 1 1 1 1 6 1 2 3 7 6 4 6 8 8 6 5 4 5 10 11 9 10 10 11 10 8 8 7 7 6 5 5 4 2 4 2 2 5 8
5 3 1 1 1 1 0 2 3 3 1 4 5 5 5 5 7 7 8 10 5 5 6 7 8 8 8 9 9 9 7 7 5 6 8 5 4 3 1 1 3 4 8 8
4 3 3 2 4 5 1 1 2 2 3 4 1 6 7 6 6 9 12 10 8 7 7 5 6 7 7 7 8 8 7 5 7 7 5 6 6 4 2 2 4 6 7 10
6 5 3 5 2 1 2 2 4 4 4 1 2 7 3 7 6 7 11 11 8 7 7 6 4 5 6 6 7 6 6 5 6 7 7 7 7 6 2 2 4 6 7 6
8 1 2 5 3 3 3 4 3 4 3 5 4 6 2 5 8 11 12 13 13 11 9 7 5 3 6 5 6 5 3 4 5 7 8 8 8 7 5 0 5 7 8 8
7 3 6 6 4 4 3 4 5 5 3 3 7 11 11 8 7 15 16 17 17 16 14 10 8 2 3 4 4 3 2 3 5 7 7 9 10 9 7 5 4 8 11 11
3 5 3 3 2 3 5 5 7 9 7 6 12 10 18 7 8 20 26 22 18 20 22 17 10 4 1 1 2 2 0 1 3 6 8 9 10 11 11 9 9 9 11 13
2 3 3 3 2 2 5 8 10 12 2 11 11 22 22 33 24 20 15 14 15 14 18 20 15 8 4 4 4 6 5 2 2 5 7 9 10 11 13 13 12 11 11 13
7 6 3 3 1 3 8 9 15 5 6 9 8 19 6 6 8 12 13 13 9 10 16 20 16 10 7 6 7 8 7 4 2 3 5 6 10 11 12 13 13 12 12 12
7 5 2 2 1 3 7 4 6 13 8 16 11 12 13 14 19 25 24 20 14 11 16 18 16 14 12 9 9 10 9 7 4 4 4 5 5 8 11 10 11 12 13 13
2 5 3 3 3 6 11 3 6 8 9 17 22 18 19 17 14 15 6 19 18 11 14 14 13 13 12 12 10 10 9 8 7 5 5 5 4 4 7 9 9 9 9 10
3 2 3 3 4 7 8 4 6 3 7 3 16 11 9 2 3 4 8 4 17 14 14 16 16 15 14 14 13 11 10 9 7 6 6 6 6 5 6 4 5 7 8 7
4 2 8 7 5 6 8 9 10 4 6 4 6 6 6 5 8 7 9 6 10 17 14 16 15 13 12 13 13 13 11 9 8 7 6 6 6 6 6 6 5 5 6 7
9 10 4 2 5 9 16 7 9 6 6 7 5 2 2 7 10 9 8 8 3 18 17 16 15 16 16 14 13 12 10 11 9 8 7 6 6 6 6 6 7 6 7 6
5 8 8 12 9 5 28 13 27 10 8 8 6 5 6 5 5 5 10 5 2 13 16 14 14 16 16 15 12 11 12 10 10 9 8 7 7 6 6 7 7 8 9 10
4 7 4 3 7 14 22 31 20 15 18 11 6 6 5 7 7 5 4 5 5 7 12 13 14 16 16 15 14 12 13 11 10 9 9 8 7 7 6 6 6 7 8 9
6 14 7 4 8 12 19 25 28 27 27 26 21 14 16 14 9 8 5 5 7 9 10 11 12 12 12 13 13 15 15 13 12 11 11 10 9 8 8 7 8 7 8 10
10 7 7 6 18 11 19 20 19 21 22 25 23 17 15 12 8 7 7 8 9 11 13 14 13 13 13 14 14 16 16 16 15 15 15 13 12 11 10 10 11 10 11 11
Wind_Direction
33 70 130 184 201 149 142 220 264 262 52 335 243 270 272 275 274 268 258 274 286 308 300 298 274 277 302 311 322 325 324 324 323 316 311 292 248 254 252 249 263 252 263 223
25 108 211 236 328 114 78 255 273 281 253 352 302 291 277 240 236 234 251 265 292 298 297 296 287 282 297 312 322 324 324 325 324 322 320 313 270 234 249 243 246 246 270 232
120 84 317 353 41 85 44 220 233 254 322 254 319 288 352 25 223 226 245 271 288 299 294 306 303 293 298 312 316 321 326 325 320 326 327 316 265 217 223 244 239 251 272 231
85 290 60 27 55 18 283 159 297 313 11 280 35 278 325 340 287 270 260 263 276 286 299 310 310 300 302 311 317 325 327 333 323 331 338 330 275 233 249 217 218 208 41 223
200 2 57 95 63 350 283 321 246 1 320 343 338 56 268 338 297 274 273 256 276 283 287 308 320 309 303 317 321 329 335 337 332 331 350 339 295 276 266 47 208 133 112 163
103 35 35 105 272 105 321 312 41 56 43 26 279 108 287 214 218 289 280 249 261 274 298 311 320 298 304 316 325 329 335 342 341 337 350 335 309 287 292 219 176 125 165 282
350 340 5 32 22 32 79 46 338 353 10 215 11 32 247 248 246 229 237 231 243 296 306 311 316 318 306 315 320 326 335 346 341 334 357 350 335 323 338 305 155 134 147 221
139 317 17 2 27 173 72 130 150 232 288 276 0 236 229 217 178 208 218 234 265 291 297 307 323 325 312 315 322 331 337 351 346 343 15 7 349 323 318 305 124 133 143 170
127 284 322 47 351 19 244 40 157 102 35 25 255 284 301 216 243 226 224 218 246 284 301 311 315 327 319 322 327 335 341 349 356 352 14 15 352 340 2 254 153 138 152 164
192 72 280 324 357 353 308 141 50 8 350 302 291 285 245 249 232 241 248 237 240 271 293 301 314 325 326 327 331 336 346 355 8 30 354 21 15 347 301 189 176 173 171 170
137 106 282 30 196 180 48 43 75 120 133 185 284 275 208 214 204 205 230 237 241 268 293 298 323 327 335 333 341 341 345 12 3 18 44 5 19 352 333 269 199 185 169 178
190 133 165 204 221 7 299 221 159 124 269 289 153 274 205 222 213 211 223 232 241 250 287 298 307 331 342 340 343 353 350 5 4 11 18 28 25 34 333 235 207 190 175 158
187 309 37 347 6 8 229 206 153 116 89 212 148 263 344 270 258 238 236 242 251 245 260 289 284 325 342 351 347 358 1 12 11 23 23 48 39 27 28 190 186 183 161 149
149 104 164 194 191 125 164 215 187 143 126 203 228 274 285 271 256 261 252 259 260 248 247 263 262 276 343 359 19 348 37 34 14 26 37 54 51 50 56 63 160 166 154 151
148 173 140 257 205 188 213 180 185 193 203 187 268 237 265 258 241 274 291 284 269 257 238 232 240 236 216 51 80 111 149 81 51 36 38 67 62 59 60 71 88 129 143 146
154 173 116 310 13 92 267 225 208 218 211 265 280 283 270 275 275 274 294 287 269 259 216 210 210 208 190 149 142 140 154 129 49 44 42 62 75 71 75 81 82 92 123 140
152 143 124 243 352 11 300 223 200 192 201 190 205 245 278 258 240 271 298 295 278 227 205 198 185 182 180 162 151 149 148 141 102 61 62 63 89 82 83 88 94 96 101 109
149 122 89 156 77 212 239 168 179 209 225 215 257 265 251 263 280 283 276 270 270 213 193 188 183 181 178 171 162 158 151 145 137 117 104 84 75 104 99 90 95 105 113 120
13 125 142 165 202 314 312 195 161 180 273 211 225 249 269 291 302 303 299 245 239 237 200 192 186 184 183 178 169 163 160 156 144 136 131 128 114 108 112 121 118 119 126 140
66 59 143 158 208 216 228 185 177 188 286 210 196 235 249 151 335 271 346 313 211 214 203 194 190 189 189 185 180 174 167 163 154 144 136 134 139 141 134 137 144 153 153 154
125 66 202 194 227 277 251 158 143 100 241 156 198 249 208 198 223 302 345 350 205 200 205 196 199 200 195 192 189 184 181 171 166 159 150 144 143 157 161 163 163 171 188 197
159 163 180 120 221 258 177 115 178 200 179 162 150 103 309 294 274 283 298 318 232 191 197 199 203 199 198 197 199 197 187 187 182 180 175 164 165 166 170 186 197 199 206 207
202 180 177 187 202 235 188 215 203 187 187 180 203 273 318 340 353 283 266 300 262 195 198 206 208 205 202 199 200 202 195 204 198 198 196 188 179 184 186 189 200 213 220 225
259 177 176 110 220 238 233 222 226 227 233 242 233 297 237 297 317 314 296 230 218 200 209 212 209 206 205 204 200 189 207 217 218 214 217 217 210 204 203 206 211 216 224 232
192 154 160 264 277 260 254 244 245 246 246 257 264 261 258 269 278 270 250 218 217 215 215 218 218 217 213 213 210 209 215 213 216 221 226 228 225 226 230 231 232 232 236 240
187 167 188 211 210 211 245 260 261 254 250 247 254 255 251 249 240 238 227 224 215 216 223 222 222 221 215 219 217 220 225 229 228 228 230 234 237 238 240 241 244 247 247 253
Height
1534 1540 1545 1547 1545 1542 1543 1546 1547 1542 1541 1541 1537 1530 1520 1515 1515 1514 1514 1515 1514 1514 1511 1510 1509 1509 1508 1505 1502 1499 1495 1492 1488 1486 1483 1481 1480 1482 1482 1481 1482 1481 1480 1481
1540 1544 1546 1544 1544 1542 1544 1546 1547 1544 1540 1544 1533 1524 1514 1511 1510 1510 1511 1512 1512 1512 1510 1509 1508 1507 1505 1503 1500 1497 1493 1490 1486 1484 1481 1479 1477 1478 1479 1479 1479 1478 1476 1475
1543 1549 1548 1545 1546 1544 1549 1548 1551 1552 1546 1540 1539 1524 1514 1509 1509 1509 1509 1510 1510 1510 1509 1508 1506 1505 1503 1502 1498 1494 1491 1488 1485 1482 1480 1478 1476 1477 1478 1477 1476 1474 1473 1471
1549 1549 1547 1547 1549 1550 1546 1551 1551 1551 1553 1543 1541 1535 1515 1512 1510 1509 1507 1507 1508 1509 1508 1506 1505 1503 1502 1500 1497 1493 1490 1487 1484 1481 1478 1477 1476 1476 1475 1474 1473 1472 1468 1466
1546 1548 1547 1545 1550 1552 1550 1550 1550 1551 1553 1553 1542 1553 1518 1514 1510 1509 1504 1504 1506 1507 1507 1505 1503 1503 1501 1499 1496 1492 1489 1486 1483 1480 1478 1477 1476 1475 1474 1473 1473 1472 1470 1468
1550 1550 1550 1550 1549 1550 1553 1551 1551 1553 1557 1573 1542 1550 1523 1516 1510 1507 1504 1503 1505 1505 1505 1503 1502 1501 1499 1497 1494 1491 1488 1486 1482 1480 1477 1475 1475 1474 1473 1473 1471 1470 1470 1472
1553 1551 1550 1551 1551 1550 1551 1555 1573 1562 1571 1557 1548 1554 1522 1510 1507 1506 1504 1504 1503 1502 1503 1501 1500 1498 1497 1495 1493 1490 1487 1485 1482 1480 1477 1475 1475 1474 1473 1471 1470 1470 1467 1472
1558 1554 1553 1553 1553 1551 1551 1554 1573 1562 1560 1556 1550 1538 1513 1507 1504 1504 1503 1502 1501 1501 1501 1499 1497 1496 1495 1494 1492 1489 1486 1485 1482 1479 1478 1476 1474 1474 1472 1471 1470 1469 1471 1471
1557 1553 1554 1554 1554 1556 1552 1561 1557 1578 1596 1573 1541 1524 1509 1506 1504 1501 1501 1500 1499 1498 1498 1496 1496 1494 1493 1492 1490 1488 1486 1484 1482 1480 1478 1476 1474 1474 1473 1472 1471 1471 1470 1472
1538 1551 1556 1554 1554 1555 1552 1555 1562 1574 1556 1556 1544 1534 1519 1505 1503 1501 1500 1498 1497 1496 1495 1494 1494 1492 1491 1490 1488 1487 1486 1484 1483 1481 1478 1477 1475 1473 1473 1474 1473 1473 1473 1474
1536 1540 1557 1556 1556 1554 1559 1561 1557 1561 1565 1569 1571 1526 1505 1500 1498 1499 1496 1495 1495 1494 1494 1493 1492 1491 1490 1489 1488 1487 1486 1484 1483 1481 1480 1477 1476 1474 1473 1473 1474 1475 1476 1476
1528 1538 1560 1552 1552 1552 1552 1548 1550 1563 1565 1579 1569 1531 1494 1496 1495 1494 1493 1493 1493 1493 1493 1492 1492 1490 1489 1488 1488 1487 1486 1485 1484 1482 1480 1478 1476 1475 1475 1473 1473 1473 1475 1476
1524 1541 1560 1548 1555 1553 1552 1548 1547 1553 1561 1572 1557 1525 1495 1495 1494 1492 1492 1491 1491 1491 1490 1490 1490 1489 1489 1488 1488 1487 1486 1486 1485 1483 1481 1480 1478 1476 1475 1474 1473 1474 1475 1477
1520 1538 1531 1533 1528 1539 1551 1550 1546 1549 1572 1553 1542 1512 1496 1496 1495 1489 1489 1488 1487 1487 1488 1488 1487 1488 1488 1488 1488 1487 1487 1486 1486 1484 1482 1481 1480 1478 1476 1475 1475 1476 1477 1479
1520 1530 1543 1543 1532 1532 1533 1541 1544 1545 1534 1534 1504 1518 1491 1488 1488 1484 1483 1483 1482 1481 1481 1484 1485 1486 1487 1487 1487 1488 1488 1487 1487 1485 1484 1482 1481 1480 1478 1477 1476 1477 1478 1480
1520 1536 1539 1539 1543 1541 1538 1532 1533 1531 1536 1529 1520 1508 1482 1480 1480 1479 1478 1477 1476 1474 1475 1478 1481 1483 1485 1486 1486 1487 1489 1489 1488 1487 1485 1484 1484 1482 1481 1480 1480 1480 1480 1483
1520 1529 1535 1534 1547 1544 1528 1513 1514 1516 1513 1509 1516 1480 1477 1476 1476 1475 1474 1474 1472 1471 1473 1474 1476 1479 1483 1484 1485 1486 1488 1490 1490 1489 1488 1487 1486 1486 1485 1484 1484 1485 1485 1486
1514 1521 1528 1526 1529 1524 1498 1494 1498 1500 1495 1496 1488 1477 1473 1473 1472 1470 1470 1470 1471 1471 1472 1473 1475 1477 1480 1482 1484 1485 1487 1489 1490 1490 1490 1489 1489 1489 1489 1489 1488 1488 1488 1490
1504 1511 1526 1521 1535 1507 1488 1492 1496 1494 1474 1474 1475 1470 1471 1472 1470 1461 1459 1462 1466 1470 1472 1473 1475 1477 1479 1480 1482 1484 1485 1487 1489 1490 1491 1491 1492 1492 1492 1492 1493 1494 1493 1493
1504 1504 1506 1523 1515 1513 1483 1482 1484 1487 1485 1463 1466 1466 1469 1470 1472 1463 1459 1458 1462 1467 1470 1472 1473 1475 1477 1479 1480 1482 1483 1485 1487 1488 1490 1491 1492 1494 1494 1494 1495 1496 1497 1497
1508 1512 1500 1505 1503 1494 1478 1477 1481 1495 1474 1462 1464 1465 1466 1467 1463 1462 1461 1459 1460 1464 1468 1470 1472 1474 1476 1478 1479 1480 1482 1484 1485 1487 1488 1490 1491 1493 1494 1495 1496 1497 1498 1499
1492 1497 1504 1508 1502 1491 1467 1477 1476 1460 1458 1460 1463 1464 1463 1462 1460 1460 1460 1460 1459 1461 1465 1468 1471 1473 1475 1477 1479 1480 1481 1483 1484 1486 1487 1488 1490 1491 1492 1494 1495 1496 1498 1498
1474 1467 1479 1476 1469 1456 1456 1452 1452 1453 1455 1457 1460 1461 1462 1461 1458 1458 1459 1459 1459 1461 1463 1466 1469 1471 1473 1475 1477 1479 1481 1482 1483 1485 1486 1487 1488 1489 1491 1492 1493 1495 1496 1497
1466 1459 1466 1467 1455 1451 1449 1450 1451 1453 1453 1455 1456 1458 1459 1459 1458 1458 1457 1457 1458 1460 1463 1465 1467 1469 1471 1474 1476 1478 1479 1481 1483 1484 1485 1486 1487 1488 1489 1490 1491 1491 1492 1493
1448 1449 1457 1458 1449 1448 1444 1444 1445 1447 1450 1451 1452 1454 1455 1456 1456 1456 1456 1455 1457 1459 1461 1463 1465 1468 1470 1472 1474 1476 1477 1477 1480 1482 1483 1484 1485 1486 1487 1487 1488 1489 1489 1490
1433 1438 1441 1440 1432 1437 1435 1438 1440 1441 1442 1444 1447 1450 1451 1452 1452 1453 1454 1454 1454 1455 1458 1460 1463 1465 1467 1468 1471 1472 1474 1475 1476 1477 1479 1480 1482 1483 1484 1485 1485 1486 1486 1486